Lid_Strength_Index
1 2 4 7 11 14 17 15 12 12 11 8 7 8 8 8 9 11 4 2 0 0 -0 -0 -0 -0 -0 -0 -0 -1 -1 -1 -1 -1 -1 -1 -1 -1 -1 -1 -1 -1 -1 -2 -2 -2 -1 -1 -1
2 1 6 10 14 17 17 14 13 9 7 8 8 8 9 9 7 5 5 5 2 0 -0 -0 0 -0 -0 -0 -0 -1 -1 -1 -1 -1 -1 -1 -1 -1 -1 -1 -1 -1 -1 -2 -2 -1 -1 -1 -1
1 4 8 11 15 17 16 14 11 9 7 8 8 7 8 9 8 6 6 5 3 0 -0 -0 0 -0 -0 -0 -0 -0 -1 -1 -1 -1 -1 -1 -1 -1 -1 -1 -1 -1 -1 -2 -2 -1 -1 -1 -1
3 6 8 13 16 14 13 13 11 10 9 9 8 9 8 6 7 8 6 5 5 1 -0 -0 -0 -0 -0 -0 -0 -1 -1 -1 -1 -1 -1 -1 -1 -1 -1 -1 -1 -1 -1 -2 -2 -2 -1 -1 -1
6 9 14 15 15 13 12 12 11 12 11 11 9 10 9 7 6 6 7 6 5 2 -0 -0 -0 -0 -0 -0 -0 -0 -1 -1 -1 -1 -1 -1 -1 -1 -1 -1 -1 -1 -1 -1 -1 -1 -1 -1 -1
9 10 16 18 16 13 12 11 11 11 11 10 11 11 9 8 8 8 7 7 6 4 1 -1 1 1 0 -0 -0 -0 -0 -0 -0 -0 -0 -1 -1 -1 -1 -1 -1 -1 -1 -1 -1 -1 -1 -1 -1
12 12 15 16 16 15 13 10 11 12 12 11 10 12 10 9 8 8 7 7 5 4 3 -0 -0 0 2 2 1 0 0 -0 -0 -0 -0 0 0 -0 -0 -0 -1 -1 -1 -1 -1 -1 -1 -1 -1
10 11 15 15 16 16 12 12 11 12 12 10 9 11 12 10 9 8 7 7 6 5 3 2 -0 -0 -0 -0 3 2 1 1 0 0 1 1 1 1 1 1 0 -1 -1 -1 -1 -1 -0 -1 -1
9 14 17 17 16 14 14 15 12 12 13 12 10 11 10 9 9 9 9 8 7 6 5 4 2 2 1 -0 0 3 3 2 2 1 2 2 -1 -1 0 1 1 -0 -0 -1 -1 -1 -1 -0 0
12 15 16 13 15 16 15 15 15 15 15 15 14 11 10 10 11 11 11 11 10 8 6 5 4 3 2 -0 -0 1 -0 -0 -0 -0 -0 -0 -1 -1 -0 1 2 1 1 -0 -1 -1 0 2 -0
15 17 15 15 14 13 15 16 14 16 17 15 15 14 13 12 12 12 12 11 10 9 7 6 5 4 4 1 -0 0 -0 -0 -0 -0 -0 -0 -0 -0 -0 -0 0 -0 3 -0 -0 1 2 1 2
17 15 14 14 13 14 15 14 15 15 16 13 13 13 13 13 12 12 12 11 11 9 8 7 5 4 5 4 0 0 0 0 0 -0 -0 -0 0 0 0 0 -0 -0 0 0 1 3 4 3 3
16 16 14 14 14 13 13 15 15 15 13 12 12 12 13 13 13 12 12 11 10 10 9 8 6 5 5 6 3 0 0 0 0 0 -0 -0 0 0 0 0 0 0 1 2 5 6 5 5 5
15 15 14 13 13 12 13 14 13 13 11 12 12 12 12 12 12 12 12 12 11 10 10 8 7 5 4 6 3 0 0 0 0 0 0 -0 0 0 0 1 1 1 3 4 6 6 7 6 6
13 15 14 13 12 12 11 14 14 11 10 11 11 11 11 11 11 12 11 12 11 10 9 9 7 5 5 3 3 1 0 0 0 0 0 0 0 1 1 1 2 3 4 6 6 8 8 8 8
14 14 17 13 12 11 11 15 12 9 10 11 10 9 9 10 10 10 10 11 10 10 9 8 6 5 5 5 3 1 0 0 0 0 0 1 1 1 1 2 3 4 5 8 8 9 9 9 9
15 18 17 15 11 11 12 14 11 9 8 9 8 8 7 8 9 8 8 9 10 10 9 9 7 5 5 5 3 2 0 1 0 0 1 1 1 2 2 3 4 6 7 9 9 10 10 11 11
18 18 16 16 12 12 13 13 11 9 9 9 9 8 8 8 7 6 5 6 7 9 10 9 8 6 5 5 3 2 1 1 0 1 1 2 2 2 2 4 7 8 9 11 11 12 11 11 12
14 16 17 15 12 12 13 13 12 10 10 10 10 10 10 9 7 7 6 5 5 7 9 9 9 8 6 6 6 4 2 2 1 1 1 1 1 3 3 5 7 8 9 11 11 11 12 13 12
14 16 16 14 11 12 13 14 12 11 11 11 11 11 11 10 10 8 7 6 6 6 7 8 8 8 7 6 6 3 1 1 1 1 1 2 2 2 3 5 7 7 9 11 12 11 12 13 12
14 15 15 15 12 12 13 16 14 12 12 11 11 11 11 11 11 10 9 8 6 6 6 8 8 7 6 5 4 3 1 1 2 2 2 2 2 3 4 5 7 8 9 11 11 11 11 14 12
17 12 12 14 16 20 14 21 16 14 13 13 12 12 12 11 11 10 10 9 8 6 5 6 8 7 6 5 6 5 3 4 3 2 2 2 2 3 4 5 7 8 9 10 11 10 11 12 13
16 12 13 14 17 18 18 20 18 15 16 15 14 13 12 12 12 12 11 10 8 7 6 6 8 7 7 7 4 4 2 2 2 2 2 3 2 3 4 5 7 8 8 10 10 11 11 11 12
12 16 15 21 24 26 21 19 19 17 17 16 14 14 14 13 13 12 11 10 9 7 6 7 7 7 7 7 4 2 3 3 3 3 3 3 4 4 5 5 6 7 8 9 10 10 11 10 11
19 22 27 28 30 27 18 19 18 16 15 16 16 15 15 14 14 13 13 12 11 8 7 7 6 7 5 7 5 2 2 2 3 3 3 4 4 5 5 6 7 8 8 8 9 10 11 10 11
22 21 22 26 29 23 17 24 19 15 14 14 14 15 14 14 14 14 13 12 11 10 8 7 7 8 5 4 5 2 2 2 2 2 3 3 4 5 5 6 6 8 8 9 9 10 10 11 11
23 20 16 18 31 28 24 19 16 14 15 15 15 15 16 15 14 14 13 12 11 10 9 8 8 8 6 5 3 2 2 2 2 3 3 4 4 5 5 6 7 8 8 8 9 9 11 11 11
17 13 21 19 26 30 25 23 22 20 18 17 18 17 16 15 15 14 13 12 11 10 8 8 8 8 8 7 2 2 2 2 2 2 3 3 4 5 6 7 8 8 9 9 9 10 12 11 12
21 21 16 15 20 26 27 25 21 22 20 19 18 16 16 16 16 15 14 13 12 11 10 9 9 9 10 8 6 3 3 2 2 3 3 3 5 6 6 7 10 10 11 11 10 10 10 10 11
18 20 15 19 21 21 21 22 20 20 18 17 17 17 16 15 15 15 15 14 13 13 12 11 11 11 10 10 9 9 8 8 6 4 5 5 5 6 8 8 9 10 9 9 9 10 10 11 12